Regional Weather Roundup
Issued by NWS

Home | Current Version | Previous Version | Graphics & Text | Print | Product List | Glossary On
Versions: 1 2 3 4 5 6 7 8 9 10 11 12 13 14 15 16 17 18 19 20 21 22 23 24 25 26 27 28 29 30 31 32 33 34 35 36 37 38 39 40 41 42 43 44 45 46 47 48 49 50
000
ASUS43 KMPX 050301
RWRMN
WEATHER ROUNDUP FOR MINNESOTA
NATIONAL WEATHER SERVICE TWIN CITIES/CHANHASSEN MN
900 PM CST SUN DEC 04 2016


NOTE: "FAIR" INDICATES FEW OR NO CLOUDS BELOW 12,000 FEET WITH NO
SIGNIFICANT WEATHER AND/OR OBSTRUCTIONS TO VISIBILITY. N/A MEANS
CURRENT SKY AND/OR WEATHER CONDITIONS ARE NOT AVAILABLE.

MNZ060>063-068>070-050400-
   Twin Cities Metro

CITY           SKY/WX    TMP DP  RH WIND       PRES   REMARKS
TWIN CITIES    CLOUDY    37  30  75 W7        29.76S
ST PAUL        CLOUDY    37  31  78 W7        29.77S
CRYSTAL        CLOUDY    36  29  75 W6        29.75S
BLAINE         CLOUDY    37  34  87 SW9       29.75R
LAKEVILLE      MOCLDY    34  34 100 W3        29.77R
EDEN PRAIRIE   CLOUDY    36  30  79 SW7       29.76S
SOUTH ST PAUL  CLOUDY    37  31  81 W6        29.76S
LAKE ELMO      CLOUDY    36  32  87 W6        29.76S
$$
MNZ001>005-007-008-013>017-022>024-027-028-050400-
   Northwest Minnesota

CITY           SKY/WX    TMP DP  RH WIND       PRES   REMARKS
BEMIDJI        CLOUDY    29  28  93 W10       29.62S WCI  20
HALLOCK        CLOUDY    30  28  93 W12       29.62S WCI  21
ROSEAU         CLOUDY    30  27  86 SW7       29.59S WCI  23
WARROAD        FLURRIES  30  27  86 SW7       29.59S WCI  23
THIEF RVR FALL FLURRIES  29  27  92 W13       29.64R WCI  19
CROOKSTON      CLOUDY    30  28  93 W13       29.67S WCI  20
FOSSTON        CLOUDY    27  27 100 W10       29.65R WCI  17
DETROIT LAKES  CLOUDY    32  28  86 W7        29.68S WCI  26
MOORHEAD       CLOUDY    30  28  93 SW6       29.70S WCI  24
PARK RAPIDS    CLOUDY    31  25  78 W14       29.65R WCI  21
$$
MNZ006-009>011-018-025>026-050400-
   North Central Minnesota

CITY           SKY/WX    TMP DP  RH WIND       PRES   REMARKS
BAUDETTE       CLOUDY    30  27  88 W6        29.59S WCI  24
FLAG ISLAND    LGT SNOW  30  28  93 SW12      29.57S WCI  21
INTL FALLS     LGT SNOW  30  29  96 S3        29.59F FOG
WASKISH        CLOUDY    30  28  93 SW12      29.61S WCI  21
BIG FORK       CLOUDY    32  30  93 W5        29.60S WCI  27
LONGVILLE      CLOUDY    30  28  93 SW7       29.63F WCI  23
GRAND RAPIDS   CLOUDY    31  28  89 W10       29.64R WCI  22
CRANE LAKE     LGT SNOW  28  28 100 CALM      29.63S
ORR            LGT SNOW  28  27  93 CALM      29.58F
COOK           LGT SNOW  30  28  93 CALM      29.61S
$$
MNZ012-019>021-037-050400-
   Northeast Minnesota

CITY           SKY/WX    TMP DP  RH WIND       PRES   REMARKS
DULUTH         FRZ DRZL  32  32 100 SW8       29.62F FOG     WCI  25
ELY            FLURRIES  28  28 100 CALM      29.61F
HIBBING        CLOUDY    30  30 100 CALM      29.60F
EVELETH        LGT SNOW  32  32  99 CALM      29.61F
DULUTH HARBOR  CLOUDY    34  34 100 SW7       29.66F FOG     WCI  28
TWO HARBORS    CLOUDY    36  30  80 SW3       29.62F HAZE
SILVER BAY     MIX PCPN  34  34 100 CALM      29.62F
GRAND MARAIS     N/A     35  34  96 W7        29.66F WCI  29
G MARAIS ARPRT MIX PCPN  28  25  86 CALM      29.62F VSB 1
$$
MNZ029>031-032-039>041-046>048-054>057-064-050400-
   West Central Minnesota

CITY           SKY/WX    TMP DP  RH WIND       PRES   REMARKS
FERGUS FALLS   MOCLDY    32  32 100 W9        29.74S WCI  24
MORRIS         CLEAR     30  28  93 W6        29.72S WCI  24
ALEXANDRIA     CLOUDY    33  31  92 W9        29.71S WCI  25
ELBOW LAKE     FAIR      30  29  99 CALM      29.71F
WADENA         CLOUDY    30  28  93 W7        29.67S WCI  23
GLENWOOD       PTCLDY    32  30  93 W12       29.71S WCI  23
APPLETON       CLEAR     30  28  93 SW5       29.74S WCI  25
BENSON         CLEAR     30  28  93 SW6       29.74S WCI  24
ORTONVILLE     CLEAR     32  27  80 CALM      29.72F
MADISON        CLEAR     34  32  93 SW8       29.74F WCI  27
WILLMAR        FAIR      34  30  86 SW7       29.76S WCI  28
$$
MNZ033>034-036-042>043-049>051-058-059-050400-
   Central Minnesota

CITY           SKY/WX    TMP DP  RH WIND       PRES   REMARKS
ST CLOUD       CLOUDY    33  31  92 SW6       29.72S WCI  28
PAYNESVILLE    CLEAR     33  33 100 SW12      29.74R WCI  24
AITKIN         CLOUDY    36  27  69 SW8       29.65S
PINE RIVER     CLOUDY    30  28  93 W7        29.69S WCI  23
BRAINERD       CLOUDY    32  29  88 SW9       29.67F WCI  24
STAPLES        CLOUDY    30  28  93 SW8       29.67S WCI  23
LONG PRAIRIE   MOCLDY    32  30  93 S8        29.70S WCI  25
LITTLE FALLS   CLOUDY    34  30  86 SW6       29.70F WCI  29
LITCHFIELD     CLEAR     34  30  86 SW3       29.75S
BUFFALO        CLOUDY    34  31  88 SW5       29.76S WCI  30
MAPLE LAKE     MOCLDY    35  32  90 SW5       29.75S WCI  30
$$
MNZ037-044-045-052-053-050400-
   East Central Minnesota

CITY           SKY/WX    TMP DP  RH WIND       PRES   REMARKS
PRINCETON      CLOUDY    36  30  80 SW3       29.72S
MORA           CLOUDY    34  30  86 W6        29.71F WCI  29
CAMBRIDGE      CLOUDY    36  32  87 SW5       29.71S
RUSH CITY      CLOUDY    34  30  86 SW6       29.72S WCI  29
MOOSE LAKE     CLOUDY    34  32  93 SW8       29.65R WCI  27
HINCKLEY       CLOUDY    34  32  93 SW7       29.69S WCI  28
CLOQUET        LGT SNOW  34  30  86 SW8       29.63F WCI  27
MCGREGOR       CLOUDY    32  32 100 W8        29.66R WCI  25
$$
MNZ071>073-080-081-089-090-097-098-050400-
   Southwest Minnesota

CITY           SKY/WX    TMP DP  RH WIND       PRES   REMARKS
MONTEVIDEO     CLEAR     28  27  93 SW5       29.77S WCI  23
GRANITE FALLS  CLEAR     32  30  92 SW3       29.77F
CANBY          CLEAR     35  30  82 CALM      29.75F
MARSHALL       CLEAR     34  30  85 SW12      29.76F WCI  25
REDWOOD FALLS  CLEAR     32  28  85 SW5       29.77S WCI  27
OLIVIA         CLEAR     32  30  93 S3        29.76S
PIPESTONE      CLEAR     30  28  93 SW7       29.77S WCI  23
WINDOM           N/A     32  30  93 CALM      29.78F
WORTHINGTON    CLEAR     34  30  85 SW13      29.79S WCI  25
JACKSON        PTCLDY    32  30  93 SW8       29.80S WCI  25
TRACY          CLEAR     35  32  90 SW9       29.77S WCI  27
SLAYTON        CLEAR     33  31  91 W12       29.78S WCI  24
$$
MNZ065>067-074>077-082>085-091>093-050400-
   South Central Minnesota

CITY           SKY/WX    TMP DP  RH WIND       PRES   REMARKS
MANKATO        MOCLDY    35  31  85 SW6       29.80R WCI  30
NEW ULM        CLEAR     32  30  93 CALM      29.78S
ST JAMES       CLEAR     34  30  86 SW8       29.80S WCI  27
FAIRMONT       CLEAR     34  30  85 SW9       29.81S WCI  27
GLENCOE        PTCLDY    35  33  90 W3        29.77R
FARIBAULT      MOCLDY    34  30  86 SW3       29.79R
OWATONNA       MOCLDY    34  30  86 SW7       29.79R WCI  28
WASECA         PTCLDY    32  32 100 SW7       29.80R WCI  26
ALBERT LEA     CLEAR     37  36  93 SW10      29.81R FOG
$$
MNZ078>079-086>088-094>096-050400-
   Southeast Minnesota

CITY           SKY/WX    TMP DP  RH WIND       PRES   REMARKS
ROCHESTER      CLOUDY    34  33  96 SW16      29.79R WCI  24
RED WING       CLOUDY    36  34  93 W3        29.77R
STANTON        PTCLDY    34  32  92 SW3       29.77R
DODGE CENTER   MOCLDY    34  34 100 SW12      29.79R WCI  25
WINONA         CLOUDY    36  32  87 SW6       29.81R
PRESTON        CLOUDY    32  31  96 SW12      29.81S FOG     WCI  23
$$
ABBREVIATIONS USED IN REMARKS
   TC - TEMPERATURES IN CELSIUS
  WCI - WIND CHILL INDEX
   HX - HEAT INDEX
  VSB - VISIBILITY
$$




USA.gov is the U.S. government's official web portal to all federal, state and local government web resources and services.